| time (UTC) | temp C | wind direction | speed KPH | gust KPH | rain 1hr cm | rain 24hr cm | rain mn cm | humidity % | barometer mb |
| 20260505014508 | 6 | 235 | 4.8 | 8.0 | 0.00 | 0.00 | 0.00 | 96 | 1008.9 |
| 20260505013007 | 5 | 168 | 1.6 | 8.0 | 0.00 | 0.00 | 0.00 | 96 | 1009.0 |
| 20260505011505 | 5 | 175 | 1.6 | 6.4 | 0.00 | 0.00 | 0.00 | 96 | 1009.0 |
| 20260505010003 | 6 | 217 | 1.6 | 3.2 | 0.00 | 0.00 | 0.00 | 95 | 1008.9 |
| 20260505004504 | 6 | 217 | 0.0 | 3.2 | 0.00 | 0.00 | 0.00 | 95 | 1008.9 |
| 20260505003001 | 6 | 234 | 0.0 | 4.8 | 0.00 | 0.00 | 0.00 | 95 | 1008.9 |
| 20260505001600 | 6 | 232 | 0.0 | 3.2 | 0.00 | 0.00 | 0.00 | 94 | 1008.9 |
| 20260505000059 | 7 | 232 | 0.0 | 4.8 | 0.00 | 0.00 | 0.00 | 94 | 1009.0 |
| 20260504234558 | 7 | 200 | 0.0 | 3.2 | 0.00 | 0.00 | 0.00 | 93 | 1009.1 |
| 20260504233101 | 8 | 200 | 3.2 | 8.0 | 0.00 | 0.00 | 0.00 | 92 | 1009.1 |
| 20260504231554 | 7 | 264 | 3.2 | 12.9 | 0.00 | 0.00 | 0.00 | 94 | 1009.2 |
| 20260504230051 | 6 | 188 | 3.2 | 4.8 | 0.00 | 0.00 | 0.00 | 97 | 1009.2 |
| 20260504224550 | 6 | 183 | 0.0 | 0.0 | 0.00 | 0.00 | 0.00 | 96 | 1009.3 |
| 20260504223053 | 6 | 183 | 0.0 | 1.6 | 0.00 | 0.00 | 0.00 | 95 | 1009.4 |
| 20260504221548 | 7 | 183 | 3.2 | 8.0 | 0.00 | 0.00 | 0.00 | 95 | 1009.6 |
| 20260504214543 | 7 | 182 | 0.0 | 3.2 | 0.00 | 0.00 | 0.00 | 94 | 1009.4 |
| 20260504213045 | 8 | 184 | 1.6 | 6.4 | 0.00 | 0.00 | 0.00 | 94 | 1009.4 |
| 20260504211541 | 8 | 207 | 3.2 | 6.4 | 0.00 | 0.00 | 0.00 | 94 | 1009.3 |
| 20260504210040 | 8 | 229 | 0.0 | 4.8 | 0.00 | 0.00 | 0.00 | 93 | 1009.2 |
| 20260504204557 | 9 | 268 | 1.6 | 8.0 | 0.00 | 0.00 | 0.00 | 92 | 1009.2 |
| 20260504203041 | 9 | 274 | 1.6 | 6.4 | 0.00 | 0.00 | 0.00 | 92 | 1009.1 |
| 20260504201538 | 10 | 264 | 3.2 | 11.3 | 0.00 | 0.00 | 0.00 | 92 | 1008.9 |
| 20260504200043 | 10 | 279 | 8.0 | 16.1 | 0.00 | 0.00 | 0.00 | 91 | 1008.9 |
| 20260504194542 | 10 | 274 | 6.4 | 19.3 | 0.00 | 0.00 | 0.00 | 87 | 1008.8 |
| 20260504193038 | 10 | 224 | 12.9 | 24.1 | 0.00 | 0.00 | 0.00 | 87 | 1008.2 |
| 20260504191540 | 10 | 227 | 9.7 | 17.7 | 0.00 | 0.00 | 0.00 | 90 | 1008.2 |
| 20260504190039 | 10 | 219 | 6.4 | 12.9 | 0.00 | 0.00 | 0.00 | 90 | 1008.1 |
| 20260504184537 | 10 | 205 | 6.4 | 17.7 | 0.00 | 0.00 | 0.00 | 89 | 1007.9 |
| 20260504183036 | 10 | 223 | 8.0 | 14.5 | 0.00 | 0.00 | 0.00 | 92 | 1007.8 |
| 20260504181534 | 10 | 205 | 9.7 | 17.7 | 0.00 | 0.00 | 0.00 | 92 | 1007.6 |
| 20260504180034 | 11 | 224 | 11.3 | 22.5 | 0.00 | 0.00 | 0.00 | 89 | 1007.6 |
| 20260504174533 | 12 | 213 | 9.7 | 22.5 | 0.00 | 0.00 | 0.00 | 89 | 1007.4 |
| 20260504173033 | 12 | 215 | 11.3 | 22.5 | 0.00 | 0.00 | 0.00 | 88 | 1007.3 |
| 20260504171534 | 13 | 185 | 11.3 | 25.7 | 0.00 | 0.00 | 0.00 | 88 | 1007.3 |
| 20260504100104 | 9 | 237 | 8.0 | 14.5 | 0.00 | 0.00 | 0.00 | 86 | 1007.7 |
| 20260504081552 | 9 | 257 | 6.4 | 17.7 | 0.00 | 0.00 | 0.00 | 85 | 1006.8 |
| 20260504050021 | 8 | 125 | 0.0 | 4.8 | 0.00 | 0.00 | 0.00 | 89 | 1006.1 |
| 20260504044520 | 8 | 126 | 0.0 | 3.2 | 0.00 | 0.00 | 0.00 | 90 | 1006.2 |
| 20260504043031 | 8 | 126 | 1.6 | 4.8 | 0.00 | 0.00 | 0.00 | 90 | 1006.0 |
| 20260504041512 | 8 | 127 | 0.0 | 4.8 | 0.00 | 0.00 | 0.00 | 91 | 1006.8 |
| 20260504033002 | 8 | 126 | 1.6 | 3.2 | 0.00 | 0.00 | 0.00 | 95 | 1007.5 |
| 20260504031603 | 8 | 126 | 3.2 | 6.4 | 0.00 | 0.00 | 0.00 | 95 | 1007.3 |
| 20260504021556 | 7 | 142 | 1.6 | 6.4 | 0.00 | 0.00 | 0.00 | 93 | 1007.9 |
| 20260504020131 | 7 | 179 | 3.2 | 6.4 | 0.00 | 0.00 | 0.00 | 94 | 1008.6 |